#timestamp,LO_Frequency,Hit,Temp,Hum 
1488628815.8,286046992.4,N,0.0,0.0
1488628835.6,286046991.2,N,0.0,0.0
1488628855.4,286046990.8,N,0.0,0.0
1488628875.3,286046994.4,N,0.0,0.0
1488628895.1,286046991.7,N,0.0,0.0
1488628915.8,286046991.3,N,0.0,0.0
1488628935.7,286046991.3,N,0.0,0.0
1488628955.5,286046991.1,N,0.0,0.0
1488628975.3,286046991.6,N,0.0,0.0
1488628995.2,286046991.6,N,0.0,0.0
1488629015.9,286046990.4,N,0.0,0.0
1488629035.7,286046990.2,N,0.0,0.0
1488629055.6,286046993.2,N,0.0,0.0
1488629075.4,286046988.6,N,0.0,0.0
1488629095.2,286046989.0,N,0.0,0.0
1488629115.1,286046996.6,N,0.0,0.0
1488629116.0,286046996.6,N,0.0,0.0
1488629135.8,286046983.2,Y,0.0,0.0
1488629155.6,286046984.1,Y,0.0,0.0
1488629175.5,286046990.2,N,0.0,0.0
1488629195.3,286046990.3,N,0.0,0.0
1488629215.1,286046989.1,N,0.0,0.0
1488629235.9,286046989.4,N,0.0,0.0
1488629255.7,286046988.7,N,0.0,0.0
1488629275.5,286046989.0,N,0.0,0.0
1488629295.4,286046987.7,N,0.0,0.0
1488629315.2,286046987.2,N,0.0,0.0
1488629335.0,286046987.6,N,0.0,0.0
1488629335.9,286046987.6,N,0.0,0.0
1488629355.8,286046995.5,N,0.0,0.0
1488629375.6,286046986.0,N,0.0,0.0
1488629395.4,286046984.6,N,0.0,0.0
1488629415.3,286046982.9,Y,0.0,0.0
1488629435.1,286046986.2,N,0.0,0.0
1488629436.0,286046986.2,N,0.0,0.0
1488629455.8,286046984.0,N,0.0,0.0
1488629475.7,286046983.4,N,0.0,0.0
1488629495.5,286046978.9,Y,0.0,0.0
1488629515.3,286046984.9,N,0.0,0.0
1488629535.2,286046983.1,N,0.0,0.0
1488629555.9,286046983.6,N,0.0,0.0
1488629575.7,286046978.9,Y,0.0,0.0
1488629595.6,286046982.4,N,0.0,0.0
1488629615.4,286046981.7,N,0.0,0.0
1488629635.2,286046979.5,N,0.0,0.0
1488629655.1,286046975.8,Y,0.0,0.0
1488629656.0,286046975.8,Y,0.0,0.0
1488629675.8,286046989.9,N,0.0,0.0
1488629695.6,286046982.1,N,0.0,0.0
1488629715.5,286046981.3,N,0.0,0.0
1488629735.3,286046978.6,N,0.0,0.0
1488629755.1,286046978.3,N,0.0,0.0
1488629775.9,286046977.2,N,0.0,0.0
1488629795.7,286046976.1,N,0.0,0.0
1488629815.5,286046974.1,Y,0.0,0.0
1488629835.4,286046980.8,N,0.0,0.0
1488629855.2,286046982.0,N,0.0,0.0
1488629875.0,286046977.5,N,0.0,0.0
1488629875.9,286046977.5,N,0.0,0.0
1488629895.8,286046974.3,N,0.0,0.0
1488629915.6,286046975.5,N,0.0,0.0
1488629935.4,286046973.4,N,0.0,0.0
1488629955.3,286046973.9,N,0.0,0.0
1488629975.1,286046972.0,Y,0.0,0.0
1488629995.8,286046976.1,N,0.0,0.0
1488630015.7,286046974.5,N,0.0,0.0
1488630035.5,286046975.3,N,0.0,0.0
1488630055.3,286046973.6,N,0.0,0.0
1488630075.2,286046973.8,N,0.0,0.0
1488630095.9,286046971.3,N,0.0,0.0
1488630115.7,286046969.6,Y,0.0,0.0
1488630135.6,286046979.0,N,0.0,0.0
1488630155.4,286046979.4,N,0.0,0.0
1488630175.2,286046979.0,N,0.0,0.0
1488630195.1,286046981.7,N,0.0,0.0
1488630196.0,286046981.7,N,0.0,0.0
1488630215.8,286046979.0,N,0.0,0.0
1488630235.6,286046980.3,N,0.0,0.0
1488630255.5,286046978.8,N,0.0,0.0
1488630275.3,286046976.0,N,0.0,0.0
1488630295.1,286046975.8,N,0.0,0.0
1488630315.9,286046976.3,N,0.0,0.0
1488630335.7,286046974.1,N,0.0,0.0
1488630355.5,286046973.8,N,0.0,0.0
1488630375.4,286046969.8,Y,0.0,0.0
1488630395.2,286046980.7,N,0.0,0.0
1488630415.0,286046980.1,N,0.0,0.0
1488630415.9,286046980.1,N,0.0,0.0
1488630435.8,286046978.7,N,0.0,0.0
1488630455.6,286046977.7,N,0.0,0.0
1488630475.4,286046978.8,N,0.0,0.0
1488630495.3,286046978.8,N,0.0,0.0
1488630515.1,286046976.6,N,0.0,0.0
1488630516.0,286046976.6,N,0.0,0.0
1488630535.8,286046971.3,Y,0.0,0.0
1488630555.7,286046988.1,N,0.0,0.0
1488630575.5,286046983.5,N,0.0,0.0
1488630595.3,286046983.4,N,0.0,0.0
1488630615.2,286046981.1,N,0.0,0.0
1488630635.9,286046980.9,N,0.0,0.0
1488630655.7,286046980.8,N,0.0,0.0
1488630675.6,286046978.9,Y,0.0,0.0
1488630695.4,286046998.0,N,0.0,0.0
1488630715.2,286046997.0,N,0.0,0.0
1488630735.1,286046997.0,N,0.0,0.0
1488630736.0,286046997.0,N,0.0,0.0
1488630755.8,286046999.5,N,0.0,0.0
1488630775.6,286046998.1,N,0.0,0.0
1488630795.5,286046999.0,N,0.0,0.0
1488630815.3,286046997.3,N,0.0,0.0
1488630835.1,286046998.1,N,0.0,0.0
1488630855.9,286047001.2,N,0.0,0.0
1488630875.7,286046997.4,N,0.0,0.0
1488630895.5,286046994.0,N,0.0,0.0
1488630915.4,286046994.2,N,0.0,0.0
1488630935.2,286046996.2,N,0.0,0.0
1488630955.0,286046995.2,N,0.0,0.0
1488630955.9,286046995.2,N,0.0,0.0
1488630975.8,286046998.0,N,0.0,0.0
1488630995.6,286046997.7,N,0.0,0.0
1488631015.4,286046996.1,N,0.0,0.0
1488631035.2,286046995.7,N,0.0,0.0
1488631055.1,286046993.6,N,0.0,0.0
1488631056.0,286046993.6,N,0.0,0.0
1488631075.8,286046994.8,N,0.0,0.0
1488631095.6,286046993.4,N,0.0,0.0
1488631115.5,286046997.6,N,0.0,0.0
1488631135.3,286046995.3,N,0.0,0.0
1488631155.1,286046997.3,N,0.0,0.0
1488631175.9,286046997.4,N,0.0,0.0
1488631195.7,286046995.2,N,0.0,0.0
1488631215.5,286046993.4,N,0.0,0.0
1488631235.4,286046994.1,N,0.0,0.0
1488631255.2,286046995.6,N,0.0,0.0
1488631275.0,286046998.0,N,0.0,0.0
1488631275.9,286046998.0,N,0.0,0.0
1488631295.8,286046998.4,N,0.0,0.0
1488631315.6,286046996.7,N,0.0,0.0
1488631335.4,286046998.9,N,0.0,0.0
1488631355.3,286046997.2,N,0.0,0.0
1488631375.1,286046998.9,N,0.0,0.0
1488631376.0,286046998.9,N,0.0,0.0
1488631395.8,286046999.2,N,0.0,0.0
1488631415.7,286046996.5,N,0.0,0.0
1488631435.5,286046997.5,N,0.0,0.0
1488631455.3,286046997.1,N,0.0,0.0
1488631475.2,286046995.8,N,0.0,0.0
1488631495.9,286046997.7,N,0.0,0.0
1488631515.7,286046998.1,N,0.0,0.0
1488631535.6,286046998.2,N,0.0,0.0
1488631555.4,286046994.9,N,0.0,0.0
1488631575.2,286046995.2,N,0.0,0.0
1488631595.1,286046995.3,N,0.0,0.0
1488631596.0,286046995.3,N,0.0,0.0
1488631615.8,286047004.1,N,0.0,0.0
1488631635.6,286046998.8,N,0.0,0.0
1488631655.4,286047000.1,N,0.0,0.0
1488631675.3,286047001.3,N,0.0,0.0
1488631695.1,286047005.6,N,0.0,0.0
1488631715.8,286047004.5,N,0.0,0.0
1488631735.7,286047005.6,N,0.0,0.0
1488631755.5,286047005.8,N,0.0,0.0
1488631775.3,286047004.6,N,0.0,0.0
1488631795.2,286047006.4,N,0.0,0.0
1488631815.9,286047004.5,N,0.0,0.0
1488631835.7,286047007.5,N,0.0,0.0
1488631855.6,286047005.6,N,0.0,0.0
1488631875.4,286047007.3,N,0.0,0.0
1488631895.2,286047008.9,N,0.0,0.0
1488631915.1,286047004.8,N,0.0,0.0
1488631916.0,286047004.8,N,0.0,0.0
1488631935.8,286047004.7,N,0.0,0.0
1488631955.6,286047008.5,N,0.0,0.0
1488631975.5,286047010.6,N,0.0,0.0
1488631995.3,286047010.1,N,0.0,0.0
1488632015.1,286047013.6,N,0.0,0.0
1488632035.9,286047010.9,N,0.0,0.0
1488632055.7,286047014.7,N,0.0,0.0
1488632075.5,286047015.4,N,0.0,0.0
1488632095.4,286047015.6,N,0.0,0.0
1488632115.2,286047016.8,N,0.0,0.0
1488632135.0,286047016.6,N,0.0,0.0
1488632135.9,286047016.6,N,0.0,0.0
1488632155.8,286047016.6,N,0.0,0.0
1488632175.6,286047015.7,N,0.0,0.0
1488632195.4,286047016.3,N,0.0,0.0
1488632215.2,286047018.8,N,0.0,0.0
1488632235.1,286047021.6,N,0.0,0.0
1488632236.0,286047021.6,N,0.0,0.0
1488632255.8,286047019.4,N,0.0,0.0
1488632275.6,286047020.3,N,0.0,0.0
1488632295.5,286047017.4,N,0.0,0.0
1488632315.3,286047018.3,N,0.0,0.0
1488632335.1,286047014.5,N,0.0,0.0
1488632355.9,286047018.3,N,0.0,0.0
1488632375.7,286047018.2,N,0.0,0.0
1488632395.5,286047018.0,N,0.0,0.0
